Location: Holyhead Bay
(53.3667°N, 4.6667°W)
Time: 18:38:51
(UTC+00:00)

Cosmos 2298 Rocket - Pass Details

Date: 24 November 2020
Orbit: 775 x 784 km, 74.0° (Epoch: 17 January)

Event Time Altitude Azimuth Distance (km) Brightness Sun altitude
Rises 16:47:09 0° 334° (NNW) 3,270 7.3 -5.6°
Reaches altitude 10° 16:49:34 10° 337° (NNW) 2,340 6.5 -5.9°
Maximum altitude 16:54:52 70° 61° (ENE) 832 4.0 -6.6°
Drops below altitude 10° 17:00:09 10° 145° (SE) 2,330 6.4 -7.3°
Sets 17:02:33 0° 148° (SSE) 3,256 7.2 -7.6°
